sat.trackr.live / text

‹ back to catalog

STARLINK-34922

NORAD 65273 · 2025-184A

PAYLOAD ACTIVE UNKNOWN

§ Identity

Operator
Country
US
Launch date
2025-08-22
Launch site
AFWTR
Launch vehicle
Mass (kg)
RCS (m²)

Purposes: comms

External: N2YO · Heavens-Above · Gunter

§ Orbital elements

Epoch: 2026-05-25T02:56:04.217856Z

Period
95.64 min
Inclination
97.4495°
Eccentricity
0.0001581
Mean motion
15.05658302 rev/d
Perigee alt
548.4 km
Apogee alt
550.6 km
Semi-major
6,927.6 km
B*
1.4790e-4
RAAN
197.6615°
Arg perigee
102.7357°
Mean anomaly
257.4047°
Rev number
4,280

§ Raw data

STARLINK-349221 65273U 25184A   26145.12227104  .00002077  00000+0  14790-3 0  99992 65273  97.4495 197.6615 0001581 102.7357 257.4047 15.05658302 42806

JSON: /api/v1/satellites/65273 · /tle

For live sub-satellite position, see the globe view (requires WebGL).

§ Visibility from observer

Set your observer location to see the next 7 days of passes ≥ 10°. The values pass through the URL so the page stays shareable.

No JS? Fill the form by hand. The geolocation button needs JavaScript.